Location: Most
(50.5133°N, 13.6207°E)
Time: 22:22:23
(UTC+02:00)

ISS - Pass Details

Date: 22 September 2024
Orbit: 412 x 424 km, 51.6° (Epoch: 09 October)

Event Time Altitude Azimuth Distance (km) Brightness Sun altitude
Rises 22:08:06 0° 286° (WNW) 2,381 1.1 -28.1°
Reaches altitude 10° 22:10:17 10° 278° (W) 1,516 -0.3 -28.4°
Enters shadow 22:10:58 15° 273° (W) 1,264 -0.8 -28.4°
